User: anonymous   Login
Location: Vale
(35.4830°N, 81.3830°W)
Time: 19:27:09
(UTC-04:00)
Language:

Oscar 11 - Orbit

View from above orbital plane
View from above orbital plane
View from above satellite
View from above satellite

Ground track
Ground track

The orbit data is extracted from the following two-line orbital elements,

1 14781U 84021B   15245.92515217 +.00000300 +00000-0 +43841-4 0  9992
2 14781 097.7940 301.0640 0008846 167.7899 192.3531 14.82492620672542
Epoch (UTC): 02 September 2015 22:12:13
Eccentricity: 0.0008846
inclination: 97.7940°
perigee height: 615 km
apogee height: 627 km
right ascension of ascending node: 301.0640°
argument of perigee: 167.7899°
revolutions per day: 14.82492620
mean anomaly at epoch: 192.3531°
orbit number at epoch: 67254

The dashed part of the orbit path shows where the satellite is in the earth's shadow,  

DLR